Content
SEND FEEDBACK

Daily
Averages
Monthly
Summary
United States of America

LINCOLN, ILLINOIS


Home > North America > United States > Illinois
Elevation: 555 feet     Latitude: 40 09N     Longitude: 089 24W

WEATHER
 
SELECT A DAY
Number of Records: 334,064;   Date Range: 9/6/01 - 12/19/14
 
SHARE

PRINT THIS DATA

[ ← Previous Day ]
WEATHER ALMANAC - MAY 19, 2013
[ Next Day → ]
[ °C ]   °F
Weather ElementAverageHighLow
Temperature78.1 °F89.6 °F (2:57 pm)62.6 °F (4:15 am)
Dewpoint65.7 °F69.8 °F (1:15 pm)60.8 °F (3:55 am)
Humidity68 %94 % (2:55 am)46 % (3:55 pm)
Barometer29.83 in29.93 in (12:35 am)29.71 in (5:55 pm)
Wind Speed10.5 mph18.4 mph (3:55 pm)
Wind Gust26.5 mph (4:35 pm)
Weather ElementAverage
Visibility7.9 mi
Wind DirectionSSE (149.6 °)

Weather ElementTotal
Precipitation---
Cooling Degree Days11.1 (Base 65)
Growing Degree Days26.1 (Base 50)
Averaged from 70 records on May 19, 2013
WEATHER CONDITIONS BREAKOUT
WIND DIRECTION BREAKOUT
WEATHER BY HOUR - MAY 19, 2013
[ °C ]   °F
Local TimeTemperatureDewpointHumidityBarometerVisibilityWind DirectionWind SpeedGust SpeedPrecipitationEventsConditions
12:35 AM66.2 °F62.6 °F88 %29.93 in7.0 miSouth (170°)3.5 mphClear
12:55 AM66.2 °F62.6 °F88 %29.92 in7.0 miSE (140°)5.8 mphClear
1:15 AM68.0 °F62.6 °F83 %29.91 in7.0 miSE (130°)4.6 mphClear
1:35 AM66.2 °F62.6 °F88 %29.91 in7.0 miSE (130°)4.6 mphClear
1:55 AM66.2 °F62.6 °F88 %29.91 in5.0 miESE (110°)3.5 mphClear
2:15 AM66.2 °F62.6 °F88 %29.89 in5.0 miESE (110°)4.6 mphClear
2:35 AM66.2 °F62.6 °F88 %29.90 in5.0 miSSE (150°)3.5 mphClear
2:55 AM64.4 °F62.6 °F94 %29.90 in5.0 miSSE (160°)3.5 mphClear
3:15 AM64.4 °F62.6 °F94 %29.92 in5.0 miSouth (180°)5.8 mphClear
3:37 AM64.4 °F62.6 °F94 %29.92 in4.0 miCalmClear
3:55 AM64.4 °F60.8 °F88 %29.91 in4.0 miSSE (160°)3.5 mphClear
4:15 AM62.6 °F60.8 °F94 %29.90 in3.0 miCalmClear
4:35 AM64.4 °F62.6 °F94 %29.92 in4.0 miSouth (170°)3.5 mphScattered Clouds
4:55 AM64.4 °F62.6 °F94 %29.92 in3.0 miSSE (160°)3.5 mphMostly Cloudy
5:17 AM64.4 °F62.6 °F94 %29.92 in3.0 miSE (130°)4.6 mphScattered Clouds
5:35 AM64.4 °F62.6 °F94 %29.92 in3.0 miSSE (150°)3.5 mphClear
5:55 AM62.6 °F60.8 °F94 %29.91 in2.0 miCalmClear
6:17 AM64.4 °F62.6 °F94 %29.90 in2.5 miSE (130°)4.6 mphClear
6:35 AM64.4 °F62.6 °F94 %29.89 in2.5 miSE (140°)5.8 mphScattered Clouds
6:55 AM66.2 °F64.4 °F94 %29.89 in3.0 miSE (140°)5.8 mphScattered Clouds
7:15 AM68.0 °F64.4 °F88 %29.89 in4.0 miSE (140°)6.9 mphScattered Clouds
7:35 AM69.8 °F64.4 °F83 %29.91 in5.0 miSSE (160°)5.8 mphHaze
7:55 AM71.6 °F64.4 °F78 %29.92 in5.0 miSE (140°)6.9 mphHaze
8:15 AM73.4 °F66.2 °F78 %29.90 in7.0 miESE (120°)8.1 mphScattered Clouds
8:35 AM75.2 °F64.4 °F69 %29.89 in7.0 miSE (130°)11.5 mph17.3 mphClear
8:55 AM77.0 °F64.4 °F65 %29.89 in7.0 miSE (140°)11.5 mph17.3 mphClear
9:35 AM80.6 °F64.4 °F58 %29.87 in10.0 miSSE (150°)12.7 mph19.6 mphClear
9:55 AM80.6 °F66.2 °F61 %29.87 in10.0 miSE (140°)15.0 mphClear
10:15 AM82.4 °F64.4 °F54 %29.86 in10.0 miSSE (150°)16.1 mph20.7 mphClear
10:35 AM82.4 °F66.2 °F58 %29.86 in10.0 miSouth (170°)15.0 mph21.9 mphClear
10:55 AM82.4 °F66.2 °F58 %29.89 in10.0 miSSE (150°)12.7 mph20.7 mphClear
11:15 AM84.2 °F66.2 °F55 %29.89 in10.0 miSSE (160°)13.8 mph20.7 mphScattered Clouds
11:35 AM84.2 °F66.2 °F55 %29.88 in10.0 miSouth (170°)12.7 mph19.6 mphMostly Cloudy
11:55 AM82.4 °F66.2 °F58 %29.87 in10.0 miSSE (160°)11.5 mph19.6 mphOvercast
12:15 PM84.2 °F68.0 °F58 %29.86 in10.0 miSSE (160°)12.7 mph20.7 mphOvercast
12:35 PM84.2 °F68.0 °F58 %29.87 in10.0 miSouth (180°)12.7 mph17.3 mphMostly Cloudy
12:57 PM82.4 °F68.0 °F62 %29.88 in10.0 miSouth (180°)11.5 mph16.1 mphOvercast
1:15 PM84.2 °F69.8 °F62 %29.83 in10.0 miSSE (150°)8.1 mphMostly Cloudy
1:35 PM87.8 °F69.8 °F55 %29.82 in7.0 miSSE (150°)8.1 mph18.4 mphClear
1:55 PM87.8 °F69.8 °F55 %29.80 in7.0 miSE (140°)11.5 mph18.4 mphScattered Clouds
2:15 PM87.8 °F68.0 °F52 %29.78 in10.0 miSE (140°)12.7 mph20.7 mphScattered Clouds
2:35 PM87.8 °F68.0 °F52 %29.77 in10.0 miSSE (150°)12.7 mph19.6 mphScattered Clouds
2:57 PM89.6 °F68.0 °F49 %29.76 in10.0 miSE (140°)12.7 mph23.0 mphScattered Clouds
3:15 PM89.6 °F68.0 °F49 %29.76 in10.0 miSSE (150°)17.3 mph23.0 mphScattered Clouds
3:35 PM89.6 °F68.0 °F49 %29.75 in10.0 miSouth (170°)16.1 mph23.0 mphScattered Clouds
3:55 PM89.6 °F66.2 °F46 %29.75 in10.0 miSSE (160°)18.4 mph25.3 mphScattered Clouds
4:17 PM89.6 °F66.2 °F46 %29.74 in10.0 miSouth (170°)16.1 mph25.3 mphScattered Clouds
4:35 PM89.6 °F66.2 °F46 %29.74 in10.0 miSouth (170°)16.1 mph26.5 mphScattered Clouds
4:55 PM89.6 °F66.2 °F46 %29.73 in10.0 miSouth (170°)17.3 mph23.0 mphClear
5:15 PM89.6 °F68.0 °F49 %29.73 in10.0 miSSE (160°)16.1 mph24.2 mphClear
5:35 PM89.6 °F68.0 °F49 %29.72 in10.0 miSSE (160°)16.1 mph25.3 mphClear
5:55 PM89.6 °F68.0 °F49 %29.71 in10.0 miSSE (160°)17.3 mph25.3 mphClear
6:17 PM87.8 °F66.2 °F49 %29.71 in10.0 miSouth (170°)18.4 mph24.2 mphClear
6:35 PM87.8 °F66.2 °F49 %29.72 in10.0 miSouth (170°)15.0 mph26.5 mphClear
6:55 PM86.0 °F68.0 °F55 %29.72 in10.0 miSSE (160°)15.0 mph20.7 mphClear
7:15 PM86.0 °F68.0 °F55 %29.72 in10.0 miSouth (170°)11.5 mph23.0 mphClear
7:35 PM84.2 °F68.0 °F58 %29.73 in10.0 miSouth (170°)9.2 mphClear
7:55 PM84.2 °F68.0 °F58 %29.73 in10.0 miSSE (160°)11.5 mph18.4 mphClear
8:15 PM84.2 °F68.0 °F58 %29.73 in10.0 miSSE (160°)13.8 mph18.4 mphClear
8:35 PM82.4 °F69.8 °F66 %29.74 in10.0 miSSE (160°)11.5 mph17.3 mphClear
8:55 PM82.4 °F69.8 °F66 %29.74 in10.0 miSSE (160°)10.4 mph17.3 mphClear
9:15 PM82.4 °F69.8 °F66 %29.74 in10.0 miSouth (170°)10.4 mph18.4 mphClear
9:38 PM82.4 °F69.8 °F66 %29.74 in10.0 miSouth (170°)11.5 mph18.4 mphClear
9:55 PM82.4 °F68.0 °F62 %29.74 in10.0 miSouth (170°)16.1 mph25.3 mphClear
10:15 PM80.6 °F68.0 °F65 %29.74 in10.0 miSSE (160°)11.5 mph21.9 mphClear
10:35 PM80.6 °F68.0 °F65 %29.74 in10.0 miSouth (170°)15.0 mph24.2 mphClear
10:55 PM80.6 °F66.2 °F61 %29.75 in10.0 miSouth (180°)18.4 mph24.2 mphClear
11:15 PM78.8 °F66.2 °F65 %29.77 in10.0 miSouth (190°)15.0 mph21.9 mphClear
11:35 PM78.8 °F64.4 °F61 %29.78 in10.0 miSouth (190°)17.3 mph23.0 mphClear
11:55 PM78.8 °F64.4 °F61 %29.77 in10.0 miSouth (190°)16.1 mph24.2 mphClear
Hourly data recorded from KAAA, located miles away from Lincoln, Illinois







STORIES FROM OUR PARTNERS